Location: Bouix
(45.2000°N, 2.4000°E)
Time: 07:05:39
(UTC+00:00)

Daily predictions for brighter satellites

Satellite Brightness Start Highest point End
(mag) Time Altitude Azimuth Time Altitude Azimuth Time Altitude Azimuth
NOSS 3-1 (A) 4.2 17:49:13 10° NW 17:56:45 86° NE 18:05:39 10° SE
CZ-4 R/B 4.4 17:57:51 10° SSE 18:01:57 72° ENE 18:06:03 10° N
CZ-4B DEB 4.2 17:57:25 10° SSE 18:02:53 88° ENE 18:08:23 10° NNW
CZ-4C R/B 4.5 17:58:44 10° N 18:02:56 53° WNW 18:06:58 10° SSW
NOSS 2-2 (D) 4.4 17:58:07 10° NW 18:03:10 88° NE 18:10:21 10° SE
SL-16 R/B 3.9 18:05:38 10° ESE 18:07:16 11° E 18:08:52 10° ENE
USA 215 3.9 18:03:25 10° NE 18:09:46 56° NNW 18:16:07 10° WSW
SL-4 R/B 3.2 18:09:36 10° WNW 18:13:44 38° N 18:18:03 10° ENE
Cosmos 1741 Rocket 4.4 18:08:55 10° S 18:13:51 41° ESE 18:18:47 10° NE
ARGOS Delta rocket 4.1 18:11:12 10° NNE 18:16:27 56° E 18:21:24 10° S
Timation 2 Rocket 4.4 18:12:17 10° NNW 18:18:32 46° NE 18:24:29 10° SE
BREEZE-M DEB (TANK) 3.9 18:16:16 10° SW 18:20:25 68° SE 18:36:37 10° ENE
Okean O Rocket 1.9 18:17:08 10° SE 18:21:17 46° ENE 18:25:29 10° N
Nadezhda 4 Rocket 4.5 18:18:13 10° SSE 18:23:58 38° E 18:29:43 10° NNE
Cosmos 2219 3.8 18:19:51 10° NNW 18:25:32 62° WSW 18:31:11 10° S
CZ-2C R/B 3.4 18:25:43 10° SSW 18:26:30 11° SSW 18:27:18 10° S
Cosmos 1242 Rocket 2.4 18:23:18 10° S 18:26:52 79° E 18:30:26 10° NNE
Cosmos 1809 Rocket 4.5 18:23:00 10° S 18:28:56 59° E 18:34:55 10° NNE
BREEZE M DEB (TANK) 4.0 18:22:28 10° SSW 18:29:08 25° SSE 18:31:26 16° ESE
Spot 1 4.0 18:25:31 10° NNE 18:29:48 87° WNW 18:33:54 10° SSW
SL-14 R/B 3.3 18:27:42 10° N 18:31:36 56° ENE 18:35:31 10° SSE
Cosmos 2263 Rocket 2.4 18:27:24 10° NNW 18:32:59 52° ENE 18:38:31 10° SE
Cosmos 1805 3.1 18:29:48 10° S 18:33:39 76° E 18:37:33 10° NNE
YAOGAN 1 2.5 18:30:47 10° SSE 18:35:06 78° ENE 18:39:26 10° N
Cosmos 1674 Rocket 3.7 18:31:47 10° N 18:36:07 54° ENE 18:40:25 10° SSE
Cosmos 1726 2.2 18:33:50 10° S 18:37:20 48° E 18:40:53 10° NNE
COBE Rocket 3.9 18:32:27 10° SSE 18:37:22 89° E 18:42:11 10° NNW
OBJECT-B 1.8 18:38:57 19° ENE 18:38:57 19° ENE 18:40:34 10° NNE
H-2A R/B 4.5 18:39:28 11° NE 18:39:28 11° NE 18:40:13 10° NE
Cosmos 2082 3.9 18:38:43 10° NNW 18:44:28 79° WSW 18:50:11 10° SSE
IRIDIUM 106 4.3 18:39:30 10° SSE 18:44:37 58° E 18:49:44 10° N
USA 267 4.1 18:39:00 10° SSE 18:45:18 49° SW 18:51:39 10° WNW
Cosmos 1766 3.3 18:43:50 10° S 18:47:36 51° E 18:51:26 10° NNE
Cosmos 1697 Rocket 3.9 18:46:20 10° SW 18:51:41 44° WNW 18:57:05 10° NNE
CSL-04 Debris 4.4 18:50:17 13° SE 18:54:49 47° ENE 18:59:58 10° N
Cosmos 2221 Rocket 4.0 18:54:06 10° NNW 18:58:35 65° W 19:03:04 10° S
Cosmos 1092 Rocket 4.4 18:55:07 10° SSE 19:00:58 41° E 19:06:47 10° NNE
Cosmos 1975 Rocket 4.2 18:57:19 10° NNE 19:00:50 24° ENE 19:00:50 24° ENE
IGS 5A 3.9 18:59:49 30° ESE 19:01:10 39° ENE 19:05:03 10° N
Resurs 01 Rocket 3.3 19:05:25 17° NE 19:05:25 17° NE 19:07:45 10° NNE
Cosmos 1378 Rocket 3.7 19:00:55 10° NNW 19:05:19 75° W 19:09:39 10° S
Cosmos 968 Rocket 3.7 19:03:46 10° S 19:08:44 44° ESE 19:13:42 10° NNE
Cosmos 1470 3.8 19:15:56 28° NE 19:15:56 28° NE 19:18:07 10° NNE
ISS -3.9 19:19:20 10° WNW 19:22:43 81° SSW 19:22:45 80° SSW
Cosmos 2322 Rocket 3.7 19:18:03 10° SSE 19:27:51 12° NE 19:28:14 10° NE
CSL-04 Rocket 3.5 19:21:40 25° SSE 19:24:50 74° ENE 19:30:14 10° N
Okean-O 2.5 19:24:10 44° SE 19:25:25 68° ENE 19:29:51 10° N
Resurs 1-3 3.6 19:26:17 53° E 19:26:42 55° ENE 19:31:00 10° N
CZ-4 R/B 2.8 19:22:54 10° SSW 19:26:50 40° W 19:30:47 10° NNW
Gbstr 26 Del rocket 4.5 19:20:58 10° WSW 19:28:39 88° NNW 19:34:42 20° ENE
SJ-6B 2.6 19:30:24 67° S 19:30:52 87° WSW 19:34:38 10° NNW
Cosmos 1980 Rocket 3.4 19:26:37 10° SW 19:31:57 42° WNW 19:37:18 10° NNE
Cosmos 1570 Rocket 3.9 19:28:03 10° NNW 19:33:20 74° ENE 19:34:49 47° SE
Cosmos 1627 Rocket 4.3 19:30:56 10° S 19:36:59 69° E 19:43:05 10° NNE
JB-3 4.5 19:35:12 10° NNE 19:38:36 60° NNE 19:38:36 60° NNE
USA 186 2.5 19:40:04 54° W 19:40:04 54° W 19:43:15 10° NNW
deb Chang Zheng 4 4.2 19:41:18 41° NNE 19:41:18 41° NNE 19:44:19 10° N
Cosmos 1428 Rocket 4.4 19:38:14 10° S 19:44:24 86° E 19:50:40 10° N
Cosmos 2195 Rocket 4.4 19:38:21 10° S 19:44:33 89° E 19:50:53 10° N
Cosmos 2278 4.3 19:41:36 10° SW 19:47:11 57° WNW 19:52:49 10° NNE
Cosmos 1437 Rocket 3.3 19:44:56 10° SSW 19:48:36 53° WNW 19:52:17 10° N
Meteor 1-24 Rocket 3.5 19:44:40 10° N 19:50:00 88° W 19:51:24 51° S
SL-16 R/B 2.0 19:44:42 10° SSW 19:50:21 78° ESE 19:56:03 10° NNE
SL-4 R/B 2.3 19:49:06 10° WNW 19:53:27 79° NNW 19:53:27 79° NNW
Cosmos 2208 Rocket 4.0 19:51:19 10° NNW 19:56:43 89° WSW 19:57:22 71° SSE
Okean O Rocket 4.3 19:54:52 10° SW 19:57:52 18° W 20:00:54 10° NW
Cosmos 1844 Rocket 2.9 19:54:00 10° NNW 19:59:17 53° NE 19:59:17 53° NE
Meteor 1-22 Rocket 4.3 19:54:31 10° SSW 19:59:51 71° WNW 20:05:25 10° N
Cosmos 2026 Rocket 3.9 19:55:59 10° S 20:02:03 80° W 20:08:10 10° N
USA 81 4.1 19:57:31 10° N 20:02:48 77° W 20:03:45 59° SSW
Cosmos 2278 Rocket 4.4 20:01:14 10° NNE 20:03:03 12° NNE 20:03:03 12° NNE
Cosmos 1782 Rocket 4.1 20:06:54 55° W 20:06:57 55° WNW 20:11:14 10° N
MOS 1 4.2 20:08:42 70° NE 20:08:42 70° NE 20:14:03 10° N
Cosmos 1553 Rocket 3.9 20:03:14 10° N 20:09:35 72° E 20:09:43 71° E
H-2A R/B 4.1 20:15:55 29° NNW 20:15:55 29° NNW 20:17:55 10° NNW
USA 281 4.2 20:16:22 32° NE 20:16:22 32° NE 20:21:34 10° N
Cosmos 2263 Rocket 4.1 20:11:56 10° NW 20:16:34 26° WSW 20:20:24 13° SSW
Cosmos 1844 4.1 20:15:39 10° NNW 20:20:06 53° N 20:20:06 53° N
SPOT 1/Viking Rocket 4.2 20:32:06 52° NNW 20:32:06 52° NNW 20:36:03 10° NNW
Resurs 01 Rocket 3.5 20:42:59 28° NW 20:42:59 28° NW 20:45:13 10° NNW
Terra 4.4 21:07:10 14° N 21:07:10 14° N 21:07:47 10° N
Cosmos 2322 Rocket 3.9 21:01:44 10° SW 21:09:30 27° N 21:12:28 10° NNE
ATLAS 2AS CENTAUR R/B 4.4 21:02:56 10° NNW 21:08:26 22° NNE 21:09:00 22° NNE
USA 215 4.5 21:34:39 34° N 21:34:39 34° N 21:39:48 10° NW
SL-16 R/B 4.4 21:30:56 10° W 21:35:08 21° NW 21:39:20 10° N
Cosmos 2278 Rocket 4.5 21:43:17 10° NNW 21:44:53 19° NNW 21:44:53 19° NNW
